Regional Weather Roundup
Issued by NWS

Home | Current Version | Previous Version | Graphics & Text | Print | Product List | Glossary On
Versions: 1 2 3 4 5 6 7 8 9 10 11 12 13 14 15 16 17 18 19 20 21 22 23 24 25 26 27 28 29 30 31 32 33 34 35 36 37 38 39 40 41 42 43 44 45 46 47 48 49 50
000
ASUS43 KMPX 260601
RWRMN
WEATHER ROUNDUP FOR MINNESOTA
NATIONAL WEATHER SERVICE TWIN CITIES/CHANHASSEN MN
100 AM CDT SUN MAR 26 2017


NOTE: "FAIR" INDICATES FEW OR NO CLOUDS BELOW 12,000 FEET WITH NO
SIGNIFICANT WEATHER AND/OR OBSTRUCTIONS TO VISIBILITY. N/A MEANS
CURRENT SKY AND/OR WEATHER CONDITIONS ARE NOT AVAILABLE.

MNZ060>063-068>070-260700-
   Twin Cities Metro

CITY           SKY/WX    TMP DP  RH WIND       PRES   REMARKS
TWIN CITIES    LGT RAIN  38  35  89 E7        30.01F
6HR MIN TEMP:  38; 6HR MAX TEMP:  42; 6HR PCP:  0.05;

ST PAUL        LGT RAIN  38  37  97 E8        30.02F
CRYSTAL        LGT RAIN  38  34  85 E7        30.00F
BLAINE         CLOUDY    39  39 100 E8        30.01F
LAKEVILLE      CLOUDY    36  36 100 E6        30.00S
EDEN PRAIRIE   LGT RAIN  39  36  89 E6        29.99F
6HR MIN TEMP:  39; 6HR MAX TEMP:  43; 6HR PCP:  0.02;

SOUTH ST PAUL  MIX PCPN  38  37  94 E8        30.01S
LAKE ELMO      DRIZZLE   37  36  93 E7        30.02F
$$
MNZ001>005-007-008-013>017-022>024-027-028-260700-
   Northwest Minnesota

CITY           SKY/WX    TMP DP  RH WIND       PRES   REMARKS
BEMIDJI        CLOUDY    30  28  91 SE6       30.04S WCI  24
HALLOCK        CLOUDY    34  32  93 S12       29.98F WCI  25
ROSEAU         CLOUDY    34  28  80 S6        30.01S WCI  29
WARROAD        PTCLDY    36  30  80 S9        30.02S
THIEF RVR FALL PTCLDY    32  31  96 CALM      30.02  FOG
CROOKSTON      PTCLDY    34  32  93 CALM      30.03R
FOSSTON        CLOUDY    32  28  86 SE7       30.01S WCI  26
DETROIT LAKES  CLOUDY    34  30  86 SE6       30.02F WCI  29
MOORHEAD       CLOUDY    34  30  86 SE5       30.02F WCI  30
PARK RAPIDS    CLOUDY    32  26  78 E5        30.01F WCI  27
MAHNOMEN       FAIR      32  29  88 S6        30.00F WCI  26
$$
MNZ006-009>011-018-025>026-260700-
   North Central Minnesota

CITY           SKY/WX    TMP DP  RH WIND       PRES   REMARKS
BAUDETTE       CLOUDY    31  26  82 SE10      30.03F WCI  22
FLAG ISLAND    PTCLDY    32  28  86 S18       30.01S WCI  20
INTL FALLS     CLOUDY    31  25  78 VRB6      30.07F WCI  25
6HR MIN TEMP:  31; 6HR MAX TEMP:  39;

WASKISH        PTCLDY    30  28  93 SE7       30.04F WCI  23
BIG FORK       CLOUDY    34  28  80 CALM      30.07S
LONGVILLE      CLOUDY    34  28  80 CALM      30.04S
CRANE LAKE     CLOUDY    30  27  86 CALM      30.12F
ORR            CLOUDY    30  25  80 CALM      30.06F
COOK           CLOUDY    30  28  93 CALM      30.08F
WALKER         CLOUDY    30  27  90 E3        30.04F
$$
MNZ012-019>021-037-260700-
   Northeast Minnesota

CITY           SKY/WX    TMP DP  RH WIND       PRES   REMARKS
DULUTH         FRZ DRZL  31  31 100 E14G22    30.05F FOG     WCI  21
6HR MIN TEMP:  30; 6HR MAX TEMP:  32; 6HR PCP: TRACE;

ELY            CLOUDY    30  28  93 CALM      30.08S
HIBBING        CLOUDY    30  28  92 E5        30.06F WCI  25
EVELETH        CLOUDY    32  29  88 E3        30.07F
DULUTH HARBOR  CLOUDY    34  32  93 NE16      30.10F WCI  23
TWO HARBORS    CLOUDY    34  28  80 E10       30.07F WCI  26
SILVER BAY     CLOUDY    32  32 100 NE8G16    30.08F WCI  25
GRAND MARAIS     N/A     34  27  75 NE10      30.14F WCI  26
G MARAIS ARPRT CLOUDY    28  19  69 E9        30.09F WCI  20
$$
MNZ029>031-032-039>041-046>048-054>057-064-260700-
   West Central Minnesota

CITY           SKY/WX    TMP DP  RH WIND       PRES   REMARKS
FERGUS FALLS   CLOUDY    36  30  80 CALM      30.05F
WHEATON        CLOUDY    36  34  93 CALM      30.03S
MORRIS         CLOUDY    37  36  93 SE6       29.99S
ALEXANDRIA     CLOUDY    39  34  82 SE9       30.00F
ELBOW LAKE     CLOUDY    37  35  93 CALM      30.01S
WADENA         CLOUDY    34  28  80 E5        30.01F WCI  30
GLENWOOD       MOCLDY    37  36  93 E6        30.00S
APPLETON       CLOUDY    39  36  87 CALM      30.00S
BENSON         CLOUDY    41  34  75 SE7       30.01F
MADISON        CLOUDY    39  39 100 E5        29.99F FOG
WILLMAR        CLOUDY    39  37  93 E8        30.00F
$$
MNZ033>034-036-042>043-049>051-058-059-260700-
   Central Minnesota

CITY           SKY/WX    TMP DP  RH WIND       PRES   REMARKS
ST CLOUD       CLOUDY    36  31  82 E9        30.01F
6HR MIN TEMP:  36; 6HR MAX TEMP:  43;

SAUK CENTRE    CLOUDY    38  34  86 E7        30.00S
PAYNESVILLE      N/A     38  35  89 E5        30.00F
AITKIN         CLOUDY    36  28  75 E6        30.03F
PINE RIVER     CLOUDY    34  28  80 E7        30.07S WCI  28
BRAINERD       CLOUDY    34  29  82 CALM      30.03F
STAPLES        CLOUDY    34  28  80 E3        30.02S
LONG PRAIRIE   CLOUDY    36  30  80 NE7       30.01F
LITTLE FALLS   CLOUDY    36  30  80 E3        30.03S
LITCHFIELD     CLOUDY    39  36  87 E7        30.00F
BUFFALO        CLOUDY    39  33  80 E9        30.01F
MAPLE LAKE     CLOUDY    40  35  85 E7        30.01F
HUTCHINSON     CLOUDY    39  36  89 NE6       30.01S
$$
MNZ037-044-045-052-053-260700-
   East Central Minnesota

CITY           SKY/WX    TMP DP  RH WIND       PRES   REMARKS
PRINCETON      CLOUDY    37  30  75 N8        30.02F
MORA           CLOUDY    34  28  80 NE3       30.05F
CAMBRIDGE      DRIZZLE   39  28  65 NE6       30.01F
RUSH CITY      CLOUDY    36  30  78 NE7       30.04F
MOOSE LAKE     CLOUDY    32  30  93 E6        30.04F WCI  26
CLOQUET        CLOUDY    32  30  93 E12G17    30.05F FOG     WCI  23
MCGREGOR       CLOUDY    32  32 100 E8        30.05F WCI  25
$$
MNZ071>073-080-081-089-090-097-098-260700-
   Southwest Minnesota

CITY           SKY/WX    TMP DP  RH WIND       PRES   REMARKS
MONTEVIDEO     CLOUDY    37  37 100 SE7       30.00F
GRANITE FALLS  CLOUDY    38  37  92 NE6       30.00F
CANBY          CLOUDY    38  37  99 CALM      29.99F FOG
MARSHALL       CLOUDY    37  35  92 E7        29.98F
REDWOOD FALLS  CLOUDY    39  34  82 E7        29.98F
OLIVIA         CLOUDY    36  34  93 E6        29.98F
PIPESTONE      FOG       37  34  87 E9        29.94S VSB 1
WINDOM         DRIZZLE   37  36  93 NE9       29.96S
WORTHINGTON    CLOUDY    36  35  96 NE8       29.95F
JACKSON        CLOUDY    36  36 100 E10       29.95S FOG
TRACY          CLOUDY    37  37  97 E6        29.97F FOG
SLAYTON        CLOUDY    35  35  99 NE8       29.96S FOG     WCI  28
$$
MNZ065>067-074>077-082>085-091>093-260700-
   South Central Minnesota

CITY           SKY/WX    TMP DP  RH WIND       PRES   REMARKS
MANKATO        LGT RAIN  37  36  96 NE7       29.98F
NEW ULM        DRIZZLE   37  36  93 E7        29.98S
ST JAMES       DRIZZLE   37  36  93 CALM      29.98S
FAIRMONT       MIX PCPN  37  36  96 NE7       29.95F FOG
GLENCOE        DRIZZLE   39  38  94 E7        29.99S
FARIBAULT      DRIZZLE   36  36 100 NE6       29.98F
OWATONNA       DRIZZLE   36  34  93 E10       29.97F
WASECA         DRIZZLE   36  34  93 E8        29.97F
ALBERT LEA     CLOUDY    36  36 100 E8        29.95S FOG
$$
MNZ078>079-086>088-094>096-260700-
   Southeast Minnesota

CITY           SKY/WX    TMP DP  RH WIND       PRES   REMARKS
ROCHESTER      FOG       35  35 100 E10       29.95F VSB 1   WCI  27
6HR MIN TEMP:  35; 6HR MAX TEMP:  37; 6HR PCP:  0.02;

RED WING       LGT RAIN  37  34  87 E5        29.99F
STANTON        LGT RAIN  38  35  89 E7        29.98F
DODGE CENTER   CLOUDY    36  34  93 E8        29.96F FOG
WINONA         CLOUDY    36  34  93 E6        30.00F
AUSTIN         CLOUDY    36  34  93 E7        29.94F
PRESTON        FOG       34  33  96 NE7       29.95F VSB 1/2 WCI  28
$$
ABBREVIATIONS USED IN REMARKS
   TC - TEMPERATURES IN CELSIUS
  WCI - WIND CHILL INDEX
   HX - HEAT INDEX
  VSB - VISIBILITY
$$




USA.gov is the U.S. government's official web portal to all federal, state and local government web resources and services.